Wind_Speed
38 38 38 39 39 39 39 40 40 41 42 42 42 43 43 44 44 44 45 45 45 46 47 47 48 49 49 49 49 50 50 50 50 50 50 51 52 52 52 52 52 52 53
38 38 38 39 40 40 40 41 41 42 43 43 44 44 44 44 45 45 45 46 47 48 48 48 49 50 51 51 52 52 52 52 52 53 53 53 54 54 54 54 54 54 55
38 38 38 39 40 41 41 41 42 42 43 44 44 45 46 45 46 47 47 48 49 49 50 49 50 50 51 52 53 53 54 54 55 55 55 56 56 55 55 56 55 56 56
37 38 38 39 40 41 42 43 43 44 44 45 45 46 46 47 48 48 49 49 50 50 51 50 51 51 52 52 53 53 54 55 56 56 57 58 58 57 56 55 56 57 57
37 38 39 39 40 42 42 43 44 45 46 47 47 47 48 48 48 49 49 49 50 50 51 51 51 52 52 53 54 54 55 55 55 56 57 58 58 59 59 57 57 58 58
37 38 39 40 41 42 43 44 45 45 46 47 48 48 48 49 49 49 50 50 51 51 51 52 52 53 53 53 53 54 55 55 56 57 58 58 59 59 60 60 59 59 59
38 39 40 40 41 42 43 44 45 46 46 47 47 47 48 49 50 50 50 50 51 51 52 52 52 52 52 52 52 53 55 56 56 56 57 58 59 60 61 61 60 59 58
39 39 40 40 40 41 41 43 44 45 46 47 48 48 49 50 49 49 50 50 51 51 52 52 52 51 51 50 51 52 54 55 56 56 56 57 58 58 59 59 60 59 58
40 40 40 40 41 41 41 42 43 44 45 46 48 49 50 50 50 50 50 50 51 52 52 52 52 52 51 51 51 51 52 54 55 56 56 56 57 57 57 58 59 59 58
40 40 40 40 41 41 42 42 43 43 45 46 48 49 50 50 50 50 50 50 51 51 51 52 53 52 52 52 51 51 51 52 53 54 55 56 56 56 56 56 57 58 58
40 40 40 40 41 41 42 43 43 43 44 45 47 48 49 50 51 51 51 50 51 50 50 52 52 52 51 52 52 52 52 53 53 54 54 54 55 56 56 56 55 55 56
40 40 41 41 41 41 41 42 43 43 44 44 45 47 48 49 50 50 50 50 50 50 50 51 51 51 51 51 51 52 53 53 52 52 52 52 53 53 54 54 54 54 54
41 41 41 42 42 41 42 42 43 44 44 44 44 45 46 47 49 49 49 49 49 49 49 49 49 50 50 51 51 51 52 52 51 51 50 51 51 51 51 52 53 53 54
41 41 41 41 42 42 43 43 43 43 44 44 44 45 45 45 46 46 47 47 48 48 48 48 49 49 50 50 51 51 50 51 50 50 50 50 50 50 50 51 51 52 53
41 41 41 41 41 42 42 42 42 42 42 42 43 43 43 43 44 45 45 46 47 47 48 48 49 49 49 50 49 49 49 49 49 49 49 49 49 50 50 50 50 51 51
41 41 41 41 41 42 42 42 42 42 41 41 42 42 43 43 44 45 45 45 46 47 47 48 48 48 48 48 47 47 47 47 48 48 48 48 49 49 50 50 49 49 49
41 41 41 41 41 41 41 41 41 41 41 41 41 42 43 43 44 44 45 45 45 45 46 46 46 46 46 46 46 46 46 46 47 47 47 47 47 48 48 48 48 48 48
39 40 40 39 39 39 39 40 40 41 41 42 42 42 42 43 43 44 44 43 43 44 44 44 44 44 44 45 45 45 45 45 45 45 45 45 45 45 45 45 46 46 47
39 39 39 39 39 39 39 39 39 40 40 41 41 41 42 42 43 43 43 43 42 42 42 43 43 43 43 43 44 44 44 44 44 44 43 43 43 43 43 43 44 44 45
39 39 39 39 39 39 39 39 39 39 39 40 41 41 41 42 42 42 42 41 41 41 41 42 42 42 42 42 42 42 42 41 41 41 41 41 41 41 41 41 41 42 43
39 39 38 38 38 39 39 39 39 39 39 39 40 40 41 41 41 41 40 40 40 40 40 40 40 39 39 39 39 39 40 39 39 38 38 38 39 39 39 40 39 39 40
38 38 38 37 37 38 38 38 38 39 38 38 38 39 39 39 39 38 38 37 37 38 38 37 37 37 37 37 37 37 38 37 37 36 36 36 37 37 37 38 38 38 39
37 37 37 37 37 37 37 37 37 37 37 37 37 37 38 38 37 36 36 35 35 35 34 34 35 35 35 35 35 35 35 34 34 33 33 34 35 36 36 37 38 38 38
36 36 36 36 36 36 37 37 36 36 36 36 37 37 36 35 35 35 34 34 34 33 33 33 34 33 33 34 33 33 33 32 32 31 32 33 33 35 36 36 37 37 37
36 35 35 35 35 35 36 36 36 36 35 35 35 35 33 33 33 32 32 31 31 32 32 32 32 32 32 32 32 32 31 31 31 31 31 32 32 33 34 35 35 36 36
35 34 34 35 35 35 35 35 35 35 34 34 33 33 32 32 32 31 30 30 30 30 30 31 31 30 30 30 30 30 30 31 31 31 31 32 32 32 32 33 34 35 35
Wind_Direction
275 274 273 272 272 272 272 272 272 272 272 272 272 273 273 272 272 271 270 269 269 270 270 270 269 268 267 268 268 267 267 267 267 267 267 267 267 267 266 266 265 263 262
274 273 273 272 272 272 272 272 272 273 273 273 273 272 273 273 272 271 270 270 269 270 270 270 270 270 269 269 269 268 267 267 268 268 268 267 266 266 266 266 265 264 263
275 274 274 273 273 273 273 273 273 272 272 272 272 271 272 273 273 272 271 271 271 271 270 270 270 271 271 270 269 268 268 268 269 269 269 268 267 265 265 265 265 264 263
275 274 274 274 273 273 273 273 273 273 272 272 271 271 271 272 273 272 272 272 272 272 272 270 270 271 272 272 270 268 268 269 270 270 270 269 269 267 265 264 264 264 263
275 274 274 274 273 273 273 273 273 273 273 272 271 271 271 272 272 272 272 272 273 273 272 271 272 272 273 273 271 270 269 270 271 270 270 269 269 268 267 264 264 264 263
275 275 275 274 274 273 273 273 273 273 273 272 271 271 271 272 272 272 273 274 274 274 273 273 273 273 274 274 272 271 270 270 271 270 269 268 268 268 268 266 264 263 263
277 276 277 277 276 275 274 273 274 274 274 273 272 272 272 272 272 273 273 274 275 275 275 274 274 275 275 274 274 273 272 272 271 270 269 268 268 268 267 266 265 264 262
279 279 279 279 278 277 276 275 274 274 273 272 272 272 272 272 273 273 275 275 276 276 277 276 276 276 275 274 274 274 273 273 271 270 269 269 269 268 268 267 266 265 263
280 280 280 280 279 278 277 276 275 274 273 273 273 273 273 274 274 274 275 276 277 277 277 277 277 276 275 275 275 275 275 274 272 271 270 269 269 269 268 267 267 266 263
281 280 280 279 279 278 277 276 276 277 275 275 275 275 274 275 275 275 276 277 278 278 278 278 277 276 276 275 275 276 276 275 274 272 272 270 269 269 268 267 267 266 265
281 280 280 279 280 279 278 277 278 278 278 277 277 276 275 275 275 276 277 278 278 279 280 279 278 276 275 275 276 277 276 275 274 273 272 271 270 269 269 268 267 266 265
280 280 279 279 279 279 278 278 279 280 279 279 279 278 278 277 277 277 278 279 279 280 280 280 278 277 276 276 277 277 277 276 274 273 272 272 271 271 270 268 267 266 265
280 279 279 279 279 279 278 279 280 280 280 280 281 280 280 279 279 279 279 280 280 280 280 280 279 278 277 278 279 278 277 276 275 273 273 273 272 271 269 269 268 267 267
281 280 279 279 279 279 279 280 281 281 281 281 282 282 282 281 281 281 281 280 280 280 280 280 280 280 281 281 281 279 278 276 275 274 275 274 273 271 270 269 269 268 268
281 279 279 280 281 280 280 280 281 281 281 282 282 283 283 283 282 282 282 281 281 281 282 281 281 281 282 282 281 280 278 276 275 275 275 274 273 272 272 271 270 269 268
281 281 280 281 281 281 280 280 280 280 281 282 283 283 283 283 283 283 283 284 285 285 284 282 282 282 282 283 281 280 278 277 276 275 275 275 275 273 273 272 270 270 270
281 281 281 281 281 282 282 281 281 282 282 282 283 283 284 284 285 285 285 286 286 286 286 285 283 282 281 281 280 279 279 278 277 275 274 274 274 274 272 272 271 270 269
282 282 282 282 282 283 283 283 282 283 283 282 283 284 284 285 285 286 287 286 286 287 288 287 285 282 282 280 280 280 279 278 277 276 275 275 274 274 272 272 271 270 269
283 283 282 283 283 283 284 284 284 284 284 284 284 284 284 285 287 287 288 287 287 287 288 287 286 284 282 281 279 279 279 278 277 277 276 274 274 273 272 272 272 271 269
284 284 283 283 284 285 285 285 285 285 286 286 286 285 286 287 288 288 288 288 287 287 287 288 287 285 284 282 281 280 280 279 278 277 276 275 274 273 273 273 272 271 270
285 284 285 285 284 285 285 285 285 286 287 287 287 286 287 288 288 289 289 288 287 286 287 288 288 287 285 283 282 281 281 280 278 277 276 274 273 273 274 274 273 273 272
286 285 284 284 284 285 285 285 286 287 288 289 289 289 288 288 289 289 289 288 287 287 287 288 289 287 286 285 285 284 283 281 279 277 276 274 273 273 274 274 274 275 275
286 286 285 283 284 285 286 286 287 288 289 290 291 291 290 290 289 289 289 289 288 289 289 289 289 288 287 287 287 285 284 282 281 278 276 274 273 273 274 275 275 276 275
287 286 286 285 284 285 287 288 288 290 290 290 291 291 291 290 290 290 290 290 290 289 289 290 289 288 288 287 286 285 283 282 281 280 278 275 275 275 275 276 276 276 276
287 287 287 287 287 287 288 289 290 291 291 291 291 291 291 291 292 292 291 292 292 291 291 291 290 290 289 288 286 284 283 282 281 280 280 278 277 277 277 277 277 278 277
286 287 288 288 288 289 289 289 290 291 290 291 292 291 291 292 293 293 292 293 294 293 292 292 292 292 291 289 287 284 283 283 283 282 281 281 279 278 278 277 277 278 279
Height
5700 5699 5699 5698 5698 5698 5697 5697 5696 5696 5695 5695 5694 5693 5692 5691 5691 5690 5689 5689 5689 5689 5688 5688 5689 5689 5690 5691 5692 5692 5693 5695 5696 5698 5700 5701 5701 5702 5703 5705 5706 5707 5708
5690 5689 5688 5688 5687 5687 5686 5686 5686 5685 5684 5684 5683 5682 5681 5680 5679 5678 5677 5677 5676 5676 5676 5675 5676 5676 5676 5677 5678 5678 5680 5681 5682 5683 5685 5687 5688 5688 5688 5689 5690 5691 5693
5679 5679 5678 5677 5677 5676 5676 5675 5675 5674 5673 5672 5671 5670 5669 5668 5667 5666 5665 5664 5663 5663 5662 5662 5662 5662 5662 5662 5663 5664 5665 5666 5667 5667 5668 5670 5671 5673 5674 5673 5674 5675 5676
5669 5668 5667 5667 5666 5666 5665 5664 5663 5662 5662 5660 5659 5659 5657 5656 5655 5654 5653 5651 5650 5649 5649 5648 5648 5648 5648 5648 5648 5648 5650 5651 5651 5651 5651 5652 5653 5654 5657 5658 5658 5658 5659
5658 5657 5657 5656 5655 5654 5654 5653 5652 5651 5650 5649 5648 5647 5645 5644 5643 5641 5640 5639 5637 5636 5635 5634 5634 5634 5633 5633 5632 5633 5633 5634 5634 5635 5635 5635 5635 5636 5638 5641 5642 5642 5643
5648 5647 5646 5645 5644 5643 5642 5641 5640 5639 5637 5636 5635 5634 5633 5632 5630 5629 5628 5626 5624 5622 5621 5621 5620 5619 5619 5618 5617 5617 5617 5617 5618 5618 5618 5618 5619 5619 5619 5622 5624 5626 5627
5637 5636 5635 5633 5632 5631 5630 5629 5628 5626 5625 5624 5623 5622 5620 5619 5618 5616 5615 5613 5611 5609 5608 5607 5606 5605 5604 5603 5602 5601 5601 5601 5601 5601 5601 5601 5601 5601 5602 5603 5605 5607 5609
5626 5625 5624 5622 5621 5620 5618 5617 5616 5614 5613 5611 5610 5608 5607 5606 5604 5603 5602 5600 5598 5596 5594 5593 5591 5590 5589 5588 5587 5587 5586 5585 5584 5584 5584 5584 5584 5584 5584 5585 5586 5588 5591
5615 5614 5612 5611 5609 5608 5607 5605 5604 5602 5600 5599 5597 5595 5594 5593 5591 5590 5588 5587 5585 5583 5581 5579 5577 5576 5575 5574 5573 5572 5571 5569 5569 5568 5567 5567 5567 5566 5566 5567 5568 5570 5572
5604 5603 5601 5599 5598 5596 5595 5593 5592 5590 5588 5586 5585 5583 5581 5580 5578 5577 5575 5573 5571 5569 5567 5565 5563 5561 5560 5559 5558 5557 5555 5554 5553 5552 5551 5551 5550 5550 5550 5550 5550 5551 5553
5593 5592 5590 5588 5587 5585 5583 5582 5580 5578 5576 5574 5572 5570 5568 5567 5565 5563 5562 5560 5558 5556 5554 5551 5549 5547 5546 5545 5544 5542 5540 5539 5538 5536 5535 5535 5534 5534 5533 5533 5534 5535 5536
5582 5581 5579 5577 5575 5573 5572 5570 5568 5566 5564 5562 5560 5558 5556 5554 5552 5550 5548 5546 5544 5542 5540 5537 5535 5533 5531 5530 5529 5527 5525 5524 5523 5521 5520 5519 5518 5518 5518 5517 5518 5519 5519
5571 5569 5568 5566 5564 5562 5560 5558 5556 5554 5552 5550 5548 5546 5543 5541 5539 5537 5535 5533 5531 5529 5526 5524 5522 5520 5518 5516 5514 5512 5511 5509 5508 5507 5506 5504 5503 5503 5503 5502 5503 5503 5503
5559 5558 5556 5554 5552 5550 5549 5546 5544 5542 5540 5538 5536 5533 5531 5529 5526 5524 5522 5520 5518 5515 5513 5510 5508 5506 5504 5501 5500 5498 5496 5495 5493 5492 5491 5490 5489 5489 5488 5488 5488 5488 5488
5548 5546 5545 5543 5541 5539 5537 5534 5532 5530 5528 5526 5524 5521 5519 5516 5514 5512 5509 5507 5504 5502 5499 5497 5494 5492 5490 5487 5485 5483 5482 5481 5479 5478 5476 5475 5475 5474 5474 5473 5473 5473 5473
5537 5535 5533 5531 5529 5527 5525 5523 5521 5519 5516 5514 5512 5509 5507 5504 5502 5499 5497 5494 5491 5489 5486 5484 5481 5478 5476 5474 5471 5469 5468 5467 5465 5464 5463 5462 5461 5460 5459 5459 5459 5459 5458
5526 5524 5522 5520 5518 5515 5513 5511 5509 5507 5505 5502 5500 5498 5495 5492 5490 5487 5484 5481 5479 5476 5473 5470 5467 5465 5462 5459 5457 5455 5454 5453 5452 5451 5450 5449 5447 5446 5446 5446 5445 5445 5444
5515 5513 5511 5508 5506 5504 5502 5499 5497 5495 5493 5491 5488 5486 5483 5480 5478 5475 5472 5469 5466 5463 5460 5457 5454 5452 5449 5446 5444 5442 5441 5439 5438 5437 5436 5435 5434 5433 5433 5433 5432 5432 5431
5503 5501 5499 5497 5495 5493 5490 5488 5486 5484 5481 5479 5476 5474 5471 5468 5466 5463 5460 5456 5453 5451 5447 5444 5441 5439 5436 5433 5431 5429 5428 5427 5425 5424 5423 5422 5421 5421 5420 5420 5420 5419 5419
5492 5490 5488 5486 5484 5481 5479 5477 5475 5472 5470 5467 5464 5462 5459 5456 5453 5450 5447 5444 5441 5438 5435 5432 5429 5427 5424 5421 5419 5416 5415 5414 5413 5412 5411 5410 5409 5408 5407 5407 5407 5407 5407
5481 5479 5477 5475 5473 5470 5468 5466 5463 5461 5458 5455 5453 5450 5447 5444 5441 5438 5435 5432 5429 5426 5423 5420 5417 5415 5412 5409 5407 5404 5402 5401 5400 5399 5399 5398 5397 5396 5395 5395 5395 5395 5395
5470 5468 5466 5464 5462 5459 5457 5455 5452 5450 5447 5444 5441 5438 5435 5432 5429 5426 5423 5420 5417 5414 5412 5409 5406 5403 5400 5398 5396 5393 5391 5389 5388 5388 5387 5386 5385 5385 5384 5384 5383 5383 5382
5459 5457 5455 5453 5451 5448 5446 5444 5441 5438 5436 5433 5430 5427 5424 5420 5418 5415 5412 5409 5406 5404 5401 5398 5396 5393 5390 5388 5385 5383 5380 5378 5377 5377 5376 5375 5374 5374 5374 5373 5372 5371 5371
5449 5447 5445 5442 5440 5437 5435 5432 5430 5427 5425 5422 5419 5416 5413 5410 5407 5404 5401 5399 5396 5394 5391 5388 5386 5383 5380 5378 5375 5373 5371 5369 5368 5367 5366 5364 5364 5363 5362 5362 5361 5360 5360
5438 5436 5434 5432 5429 5427 5424 5422 5419 5417 5414 5411 5408 5405 5402 5399 5397 5394 5391 5389 5386 5384 5381 5379 5376 5373 5371 5368 5365 5363 5361 5360 5359 5357 5356 5355 5354 5353 5352 5351 5350 5350 5349
5428 5426 5423 5421 5419 5416 5414 5411 5408 5406 5403 5401 5398 5395 5392 5390 5387 5384 5382 5379 5377 5374 5371 5369 5366 5364 5361 5358 5355 5353 5352 5350 5349 5347 5346 5345 5344 5343 5342 5341 5340 5340 5338